�N����,�����b,���ԉ��x,���Ԏ��x,��󒲎�,����,�ݼ�
2004/8/1,0:00:00,28.9 ,50.0 ,30.3 ,27.5 ,28.7 
2004/8/1,0:15:00,29.0 ,50.6 ,30.3 ,27.5 ,28.8 
2004/8/1,0:30:00,29.1 ,50.6 ,30.3 ,27.5 ,28.8 
2004/8/1,0:45:00,29.1 ,50.9 ,30.2 ,27.5 ,28.9 
2004/8/1,1:00:00,29.2 ,51.6 ,30.2 ,27.5 ,28.9 
2004/8/1,1:15:00,29.3 ,51.6 ,30.2 ,27.5 ,29.0 
2004/8/1,1:30:00,29.2 ,51.4 ,30.2 ,27.6 ,29.0 
2004/8/1,1:45:00,29.2 ,51.5 ,30.1 ,27.6 ,29.0 
2004/8/1,2:00:00,29.2 ,51.4 ,30.1 ,27.6 ,29.0 
2004/8/1,2:15:00,29.3 ,51.8 ,30.0 ,27.6 ,29.0 
2004/8/1,2:30:00,29.3 ,51.8 ,30.0 ,27.6 ,29.0 
2004/8/1,2:45:00,29.3 ,51.9 ,29.9 ,27.6 ,29.0 
2004/8/1,3:00:00,29.2 ,52.0 ,29.9 ,27.6 ,29.0 
2004/8/1,3:15:00,29.2 ,52.4 ,29.9 ,27.7 ,28.9 
2004/8/1,3:30:00,29.2 ,52.4 ,29.9 ,27.7 ,28.9 
2004/8/1,3:45:00,29.2 ,52.6 ,29.8 ,27.7 ,28.9 
2004/8/1,4:00:00,29.2 ,52.6 ,29.8 ,27.7 ,28.9 
2004/8/1,4:15:00,29.2 ,52.7 ,29.8 ,27.8 ,28.9 
2004/8/1,4:30:00,29.2 ,52.8 ,29.7 ,27.8 ,28.8 
2004/8/1,4:45:00,29.2 ,53.0 ,29.7 ,27.8 ,28.8 
2004/8/1,5:00:00,29.1 ,53.2 ,29.7 ,27.8 ,28.8 
2004/8/1,5:15:00,29.1 ,53.0 ,29.7 ,27.8 ,28.8 
2004/8/1,5:30:00,29.1 ,53.1 ,29.6 ,27.8 ,28.7 
2004/8/1,5:45:00,29.1 ,53.3 ,29.6 ,27.8 ,28.7 
2004/8/1,6:00:00,29.1 ,53.6 ,29.5 ,27.8 ,28.7 
2004/8/1,6:15:00,28.5 ,54.3 ,29.4 ,27.0 ,29.4 
2004/8/1,6:30:00,28.4 ,55.2 ,29.2 ,27.0 ,28.7 
2004/8/1,6:45:00,28.4 ,54.6 ,29.2 ,27.1 ,28.6 
2004/8/1,7:00:00,28.4 ,54.4 ,29.1 ,27.1 ,28.6 
2004/8/1,7:15:00,28.6 ,54.6 ,29.2 ,27.1 ,28.6 
2004/8/1,7:30:00,28.8 ,54.8 ,29.3 ,27.1 ,28.8 
2004/8/1,7:45:00,28.9 ,54.9 ,29.4 ,27.1 ,28.9 
2004/8/1,8:00:00,28.9 ,54.8 ,29.5 ,27.2 ,29.0 
2004/8/1,8:15:00,29.0 ,54.7 ,29.5 ,27.2 ,29.1 
2004/8/1,8:30:00,29.0 ,54.9 ,29.6 ,27.2 ,29.1 
2004/8/1,8:45:00,29.1 ,55.0 ,29.7 ,27.2 ,29.2 
2004/8/1,9:00:00,29.1 ,55.0 ,29.8 ,27.3 ,29.3 
2004/8/1,9:15:00,29.2 ,55.1 ,29.8 ,27.3 ,29.4 
2004/8/1,9:30:00,29.3 ,55.2 ,29.9 ,27.3 ,29.5 
2004/8/1,9:45:00,29.3 ,55.3 ,30.1 ,27.3 ,29.6 
2004/8/1,10:00:00,29.4 ,55.9 ,30.1 ,27.3 ,29.7 
2004/8/1,10:15:00,29.4 ,55.8 ,30.2 ,27.4 ,29.7 
2004/8/1,10:30:00,29.5 ,56.0 ,30.3 ,27.4 ,29.8 
2004/8/1,10:45:00,29.6 ,55.6 ,30.4 ,27.4 ,29.9 
2004/8/1,11:00:00,29.6 ,55.9 ,30.4 ,27.4 ,30.1 
2004/8/1,11:15:00,29.7 ,55.5 ,30.5 ,27.5 ,30.2 
2004/8/1,11:30:00,29.8 ,55.9 ,30.6 ,27.5 ,30.3 
2004/8/1,11:45:00,29.9 ,55.7 ,30.7 ,27.5 ,30.4 
2004/8/1,12:00:00,30.0 ,55.6 ,30.7 ,27.5 ,30.5 
2004/8/1,12:15:00,30.1 ,55.7 ,30.8 ,27.5 ,30.6 
2004/8/1,12:30:00,30.1 ,55.9 ,30.8 ,27.6 ,30.8 
2004/8/1,12:45:00,30.3 ,55.7 ,30.9 ,27.6 ,30.9 
2004/8/1,13:00:00,30.3 ,55.8 ,31.0 ,27.6 ,31.0 
2004/8/1,13:15:00,30.5 ,55.9 ,31.0 ,27.6 ,31.1 
2004/8/1,13:30:00,30.6 ,55.3 ,31.1 ,27.7 ,31.3 
2004/8/1,13:45:00,30.7 ,55.5 ,31.1 ,27.7 ,31.4 
2004/8/1,14:00:00,30.8 ,55.9 ,31.2 ,27.7 ,31.5 
2004/8/1,14:15:00,30.9 ,55.9 ,31.3 ,27.7 ,31.5 
2004/8/1,14:30:00,31.0 ,55.7 ,31.3 ,27.8 ,31.6 
2004/8/1,14:45:00,31.1 ,55.9 ,31.4 ,27.8 ,31.7 
2004/8/1,15:00:00,31.2 ,55.8 ,31.4 ,27.8 ,31.8 
2004/8/1,15:15:00,31.3 ,55.7 ,31.5 ,27.8 ,31.8 
2004/8/1,15:30:00,31.4 ,55.9 ,31.6 ,27.9 ,31.9 
2004/8/1,15:45:00,31.5 ,55.8 ,31.6 ,27.9 ,32.0 
2004/8/1,16:00:00,31.6 ,55.7 ,31.7 ,27.9 ,32.1 
2004/8/1,16:15:00,31.7 ,55.7 ,31.8 ,28.0 ,32.1 
2004/8/1,16:30:00,31.8 ,55.6 ,31.8 ,28.0 ,32.2 
2004/8/1,16:45:00,31.9 ,55.6 ,31.9 ,28.0 ,32.2 
2004/8/1,17:00:00,32.0 ,55.4 ,32.0 ,28.1 ,32.3 
2004/8/1,17:15:00,32.0 ,55.3 ,32.0 ,28.1 ,32.3 
2004/8/1,17:30:00,32.1 ,55.3 ,32.0 ,28.1 ,32.3 
2004/8/1,17:45:00,32.1 ,55.3 ,32.0 ,28.2 ,32.3 
2004/8/1,18:00:00,32.1 ,55.3 ,32.0 ,28.2 ,32.3 
2004/8/1,18:15:00,32.1 ,55.2 ,32.1 ,28.2 ,32.3 
2004/8/1,18:30:00,32.1 ,55.6 ,32.1 ,28.3 ,32.3 
2004/8/1,18:45:00,32.1 ,55.3 ,32.1 ,28.3 ,32.3 
2004/8/1,19:00:00,32.1 ,55.1 ,32.1 ,28.3 ,32.3 
2004/8/1,19:15:00,32.1 ,55.0 ,32.0 ,28.4 ,32.2 
2004/8/1,19:30:00,32.1 ,55.1 ,32.0 ,28.4 ,32.2 
2004/8/1,19:45:00,32.1 ,54.9 ,32.0 ,28.4 ,32.1 
2004/8/1,20:00:00,32.1 ,54.8 ,32.0 ,28.5 ,32.1 
2004/8/1,20:15:00,32.1 ,54.7 ,32.0 ,28.5 ,32.1 
2004/8/1,20:30:00,31.1 ,51.8 ,31.5 ,27.5 ,31.7 
2004/8/1,20:45:00,30.5 ,51.9 ,31.1 ,27.5 ,30.9 
2004/8/1,21:00:00,30.2 ,51.3 ,30.8 ,27.6 ,30.4 
2004/8/1,21:15:00,29.8 ,50.8 ,31.0 ,27.6 ,30.0 
2004/8/1,21:30:00,29.5 ,49.8 ,31.0 ,27.6 ,29.7 
2004/8/1,21:45:00,29.3 ,50.0 ,30.9 ,27.7 ,29.4 
2004/8/1,22:00:00,29.1 ,50.9 ,30.8 ,27.7 ,29.3 
2004/8/1,22:15:00,28.9 ,50.7 ,30.7 ,27.7 ,29.1 
2004/8/1,22:30:00,28.8 ,50.1 ,30.7 ,27.7 ,28.9 
2004/8/1,22:45:00,28.5 ,49.8 ,30.5 ,27.7 ,28.7 
2004/8/1,23:00:00,28.4 ,50.0 ,30.4 ,27.7 ,28.4 
2004/8/1,23:15:00,28.3 ,49.8 ,30.3 ,27.8 ,28.3 
2004/8/1,23:30:00,28.3 ,50.6 ,30.2 ,28.0 ,28.1 
2004/8/1,23:45:00,28.7 ,51.7 ,30.1 ,28.1 ,28.4 
2004/8/2,0:00:00,28.8 ,51.6 ,30.1 ,28.0 ,28.6 
2004/8/2,0:15:00,28.8 ,51.8 ,30.0 ,28.0 ,28.8 
2004/8/2,0:30:00,28.9 ,51.2 ,30.0 ,28.1 ,28.8 
2004/8/2,0:45:00,28.9 ,50.5 ,29.9 ,28.0 ,28.7 
2004/8/2,1:00:00,28.8 ,50.4 ,29.9 ,28.0 ,28.6 
2004/8/2,1:15:00,28.8 ,50.0 ,29.8 ,28.0 ,28.6 
2004/8/2,1:30:00,28.7 ,50.4 ,29.8 ,28.0 ,28.5 
2004/8/2,1:45:00,28.7 ,50.7 ,29.7 ,28.0 ,28.5 
2004/8/2,2:00:00,28.7 ,51.1 ,29.7 ,28.0 ,28.4 
2004/8/2,2:15:00,28.7 ,51.3 ,29.6 ,28.1 ,28.4 
2004/8/2,2:30:00,28.7 ,51.3 ,29.6 ,28.0 ,28.4 
2004/8/2,2:45:00,28.7 ,51.5 ,29.5 ,28.1 ,28.4 
2004/8/2,3:00:00,28.7 ,51.4 ,29.5 ,28.1 ,28.3 
2004/8/2,3:15:00,28.6 ,51.6 ,29.4 ,28.1 ,28.3 
2004/8/2,3:30:00,28.6 ,51.5 ,29.4 ,28.1 ,28.3 
2004/8/2,3:45:00,28.6 ,51.8 ,29.3 ,28.0 ,28.2 
2004/8/2,4:00:00,28.6 ,51.8 ,29.3 ,28.0 ,28.2 
2004/8/2,4:15:00,28.5 ,51.7 ,29.3 ,28.1 ,28.1 
2004/8/2,4:30:00,28.5 ,51.6 ,29.2 ,28.1 ,28.1 
2004/8/2,4:45:00,28.4 ,51.6 ,29.2 ,28.1 ,28.0 
2004/8/2,5:00:00,28.4 ,51.7 ,29.1 ,28.0 ,28.0 
2004/8/2,5:15:00,28.4 ,51.1 ,29.1 ,28.1 ,27.9 
2004/8/2,5:30:00,28.3 ,51.4 ,29.0 ,28.0 ,27.9 
2004/8/2,5:45:00,28.3 ,51.4 ,29.0 ,27.4 ,27.9 
2004/8/2,6:00:00,28.3 ,51.7 ,28.9 ,27.4 ,27.8 
2004/8/2,6:15:00,28.3 ,52.3 ,28.8 ,28.0 ,30.6 
2004/8/2,6:30:00,28.3 ,52.3 ,28.7 ,28.0 ,29.3 
2004/8/2,6:45:00,28.3 ,52.2 ,28.7 ,28.0 ,28.7 
2004/8/2,7:00:00,28.3 ,52.5 ,28.7 ,28.0 ,28.5 
2004/8/2,7:15:00,28.4 ,53.0 ,28.8 ,28.2 ,28.5 
2004/8/2,7:30:00,28.4 ,52.7 ,28.9 ,28.3 ,28.5 
2004/8/2,7:45:00,28.4 ,52.3 ,29.0 ,28.3 ,28.6 
2004/8/2,8:00:00,28.5 ,52.4 ,29.1 ,28.3 ,28.7 
2004/8/2,8:15:00,28.6 ,52.1 ,29.2 ,28.2 ,28.8 
2004/8/2,8:30:00,28.7 ,52.0 ,29.3 ,28.2 ,28.9 
2004/8/2,8:45:00,28.8 ,51.3 ,29.5 ,28.3 ,29.1 
2004/8/2,9:00:00,28.9 ,51.2 ,29.6 ,28.2 ,29.3 
2004/8/2,9:15:00,29.0 ,51.0 ,29.8 ,28.2 ,29.5 
2004/8/2,9:30:00,29.2 ,51.4 ,29.9 ,28.2 ,29.6 
2004/8/2,9:45:00,29.3 ,50.6 ,30.1 ,28.2 ,29.7 
2004/8/2,10:00:00,29.4 ,50.7 ,30.2 ,27.6 ,29.9 
2004/8/2,10:15:00,29.5 ,50.2 ,30.4 ,27.6 ,30.0 
2004/8/2,10:30:00,29.6 ,50.1 ,30.5 ,27.6 ,30.3 
2004/8/2,10:45:00,29.9 ,47.9 ,30.7 ,27.6 ,30.5 
2004/8/2,11:00:00,30.3 ,46.4 ,30.8 ,27.7 ,30.8 
2004/8/2,11:15:00,30.6 ,45.2 ,30.8 ,27.7 ,31.1 
2004/8/2,11:30:00,30.9 ,45.4 ,30.9 ,27.3 ,31.4 
2004/8/2,11:45:00,31.1 ,44.6 ,31.1 ,27.4 ,31.6 
2004/8/2,12:00:00,31.3 ,43.7 ,31.3 ,27.4 ,31.8 
2004/8/2,12:15:00,31.4 ,42.3 ,31.4 ,27.4 ,31.9 
2004/8/2,12:30:00,31.7 ,43.5 ,31.4 ,27.5 ,32.1 
2004/8/2,12:45:00,31.9 ,44.0 ,31.6 ,27.5 ,32.4 
2004/8/2,13:00:00,32.1 ,43.3 ,31.7 ,27.5 ,32.6 
2004/8/2,13:15:00,32.0 ,44.4 ,31.8 ,27.5 ,32.7 
2004/8/2,13:30:00,32.1 ,42.7 ,31.9 ,27.6 ,32.7 
2004/8/2,13:45:00,32.1 ,43.6 ,32.0 ,27.6 ,32.9 
2004/8/2,14:00:00,32.1 ,48.8 ,32.0 ,27.6 ,32.7 
2004/8/2,14:15:00,32.2 ,49.0 ,32.1 ,27.7 ,32.7 
2004/8/2,14:30:00,32.2 ,49.7 ,32.1 ,27.7 ,33.6 
2004/8/2,14:45:00,32.3 ,49.9 ,32.2 ,27.7 ,34.0 
2004/8/2,15:00:00,32.3 ,48.9 ,32.2 ,27.8 ,34.3 
2004/8/2,15:15:00,32.4 ,49.6 ,32.2 ,27.8 ,33.9 
2004/8/2,15:30:00,32.5 ,48.9 ,32.3 ,27.8 ,33.5 
2004/8/2,15:45:00,32.5 ,50.5 ,32.3 ,27.9 ,33.2 
2004/8/2,16:00:00,32.6 ,50.7 ,32.3 ,27.9 ,33.1 
2004/8/2,16:15:00,32.6 ,51.6 ,32.3 ,28.0 ,33.0 
2004/8/2,16:30:00,32.8 ,53.4 ,32.4 ,28.1 ,33.0 
2004/8/2,16:45:00,32.9 ,52.9 ,32.4 ,28.1 ,33.0 
2004/8/2,17:00:00,33.0 ,53.7 ,32.5 ,28.1 ,33.0 
2004/8/2,17:15:00,33.0 ,53.0 ,32.5 ,28.1 ,32.9 
2004/8/2,17:30:00,32.9 ,51.5 ,32.5 ,28.2 ,32.8 
2004/8/2,17:45:00,32.8 ,51.4 ,32.4 ,28.2 ,32.7 
2004/8/2,18:00:00,32.6 ,51.9 ,32.3 ,28.3 ,32.5 
2004/8/2,18:15:00,32.5 ,53.2 ,32.2 ,28.3 ,32.4 
2004/8/2,18:30:00,32.4 ,52.9 ,32.2 ,28.4 ,32.2 
2004/8/2,18:45:00,32.2 ,53.1 ,32.0 ,28.4 ,32.0 
2004/8/2,19:00:00,32.2 ,53.3 ,32.0 ,29.7 ,31.9 
2004/8/2,19:15:00,32.1 ,52.6 ,31.9 ,29.7 ,31.7 
2004/8/2,19:30:00,32.1 ,52.7 ,31.8 ,29.7 ,31.6 
2004/8/2,19:45:00,32.1 ,53.5 ,31.8 ,29.7 ,31.5 
2004/8/2,20:00:00,32.1 ,52.8 ,31.9 ,29.7 ,31.5 
2004/8/2,20:15:00,32.1 ,52.1 ,31.9 ,29.7 ,31.4 
2004/8/2,20:30:00,31.9 ,51.7 ,31.7 ,28.3 ,31.3 
2004/8/2,20:45:00,31.8 ,51.1 ,31.6 ,28.3 ,31.1 
2004/8/2,21:00:00,31.6 ,50.9 ,31.5 ,28.3 ,31.0 
2004/8/2,21:15:00,31.5 ,50.7 ,31.7 ,28.4 ,30.9 
2004/8/2,21:30:00,31.4 ,50.5 ,31.6 ,28.4 ,30.7 
2004/8/2,21:45:00,31.2 ,50.1 ,31.5 ,28.5 ,30.6 
2004/8/2,22:00:00,31.1 ,49.8 ,31.4 ,28.5 ,30.5 
2004/8/2,22:15:00,30.9 ,49.5 ,31.4 ,28.5 ,30.3 
2004/8/2,22:30:00,30.8 ,49.1 ,31.3 ,28.5 ,30.2 
2004/8/2,22:45:00,30.7 ,49.0 ,31.2 ,28.6 ,30.0 
2004/8/2,23:00:00,30.5 ,49.1 ,31.2 ,28.6 ,29.9 
2004/8/2,23:15:00,30.4 ,48.8 ,31.1 ,28.6 ,29.7 
2004/8/2,23:30:00,30.2 ,48.5 ,31.0 ,28.6 ,29.6 
2004/8/2,23:45:00,30.1 ,48.8 ,30.9 ,28.7 ,29.5 
2004/8/3,0:00:00,30.1 ,49.3 ,30.9 ,28.7 ,29.5 
2004/8/3,0:15:00,30.1 ,49.8 ,30.8 ,28.7 ,29.5 
2004/8/3,0:30:00,30.1 ,50.1 ,30.8 ,28.7 ,29.6 
2004/8/3,0:45:00,30.1 ,50.2 ,30.7 ,28.7 ,29.6 
2004/8/3,1:00:00,30.1 ,50.4 ,30.7 ,28.8 ,29.6 
2004/8/3,1:15:00,30.0 ,50.7 ,30.6 ,28.8 ,29.6 
2004/8/3,1:30:00,29.9 ,50.2 ,30.6 ,28.8 ,29.5 
2004/8/3,1:45:00,29.9 ,49.9 ,30.5 ,28.8 ,29.4 
2004/8/3,2:00:00,29.8 ,50.1 ,30.4 ,28.8 ,29.3 
2004/8/3,2:15:00,29.7 ,50.1 ,30.4 ,28.8 ,29.2 
2004/8/3,2:30:00,29.7 ,50.0 ,30.3 ,28.8 ,29.1 
2004/8/3,2:45:00,29.6 ,50.0 ,30.2 ,28.8 ,29.1 
2004/8/3,3:00:00,29.6 ,49.9 ,30.2 ,28.9 ,29.0 
2004/8/3,3:15:00,29.5 ,50.2 ,30.1 ,28.9 ,29.0 
2004/8/3,3:30:00,29.5 ,50.1 ,30.1 ,28.9 ,29.0 
2004/8/3,3:45:00,29.4 ,50.3 ,30.0 ,28.9 ,28.9 
2004/8/3,4:00:00,29.4 ,50.2 ,30.0 ,28.9 ,28.8 
2004/8/3,4:15:00,29.3 ,50.5 ,29.9 ,28.9 ,28.7 
2004/8/3,4:30:00,29.3 ,50.9 ,29.9 ,28.9 ,28.6 
2004/8/3,4:45:00,29.2 ,50.9 ,29.8 ,28.9 ,28.6 
2004/8/3,5:00:00,29.2 ,50.8 ,29.7 ,28.9 ,28.6 
2004/8/3,5:15:00,29.2 ,51.1 ,29.6 ,28.9 ,28.6 
2004/8/3,5:30:00,29.1 ,51.1 ,29.5 ,28.9 ,28.6 
2004/8/3,5:45:00,29.1 ,51.3 ,29.4 ,28.9 ,28.6 
2004/8/3,6:00:00,29.1 ,51.4 ,29.4 ,28.9 ,28.6 
2004/8/3,6:15:00,29.1 ,51.4 ,29.3 ,28.9 ,28.6 
2004/8/3,6:30:00,29.1 ,51.6 ,29.3 ,28.9 ,28.6 
2004/8/3,6:45:00,29.1 ,51.7 ,29.3 ,28.9 ,29.0 
2004/8/3,7:00:00,29.1 ,51.9 ,29.3 ,28.9 ,30.5 
2004/8/3,7:15:00,29.1 ,52.1 ,29.4 ,28.9 ,30.8 
2004/8/3,7:30:00,29.2 ,52.3 ,29.5 ,28.9 ,30.2 
2004/8/3,7:45:00,29.2 ,52.3 ,29.6 ,28.9 ,29.8 
2004/8/3,8:00:00,29.3 ,52.2 ,29.7 ,28.9 ,29.7 
2004/8/3,8:15:00,29.3 ,52.1 ,29.8 ,28.9 ,29.6 
2004/8/3,8:30:00,29.3 ,52.5 ,29.9 ,28.9 ,29.6 
2004/8/3,8:45:00,29.4 ,51.6 ,30.1 ,28.9 ,29.7 
2004/8/3,9:00:00,29.4 ,51.5 ,30.2 ,28.9 ,29.8 
2004/8/3,9:15:00,29.5 ,52.0 ,30.3 ,28.9 ,29.8 
2004/8/3,9:30:00,29.5 ,51.9 ,30.5 ,28.9 ,29.9 
2004/8/3,9:45:00,29.6 ,51.6 ,30.7 ,28.9 ,29.9 
2004/8/3,10:00:00,29.6 ,51.9 ,30.8 ,28.9 ,30.0 
2004/8/3,10:15:00,29.7 ,52.3 ,30.8 ,28.9 ,30.1 
2004/8/3,10:30:00,29.8 ,52.3 ,31.0 ,28.9 ,30.2 
2004/8/3,10:45:00,30.0 ,51.9 ,31.1 ,28.9 ,30.4 
2004/8/3,11:00:00,30.0 ,50.1 ,31.1 ,28.9 ,30.5 
2004/8/3,11:15:00,30.2 ,49.8 ,31.2 ,28.9 ,30.6 
2004/8/3,11:30:00,30.3 ,50.6 ,31.3 ,28.9 ,30.7 
2004/8/3,11:45:00,30.4 ,49.8 ,31.3 ,28.9 ,30.9 
2004/8/3,12:00:00,30.5 ,51.3 ,31.4 ,28.9 ,32.7 
2004/8/3,12:15:00,30.6 ,51.8 ,31.4 ,29.0 ,32.5 
2004/8/3,12:30:00,30.7 ,47.2 ,31.5 ,29.0 ,32.2 
2004/8/3,12:45:00,30.7 ,46.0 ,31.5 ,29.0 ,32.0 
2004/8/3,13:00:00,30.7 ,44.5 ,31.5 ,28.1 ,31.7 
2004/8/3,13:15:00,30.7 ,44.5 ,31.5 ,28.2 ,32.9 
2004/8/3,13:30:00,30.7 ,43.1 ,31.5 ,28.2 ,32.8 
2004/8/3,13:45:00,30.8 ,44.3 ,31.6 ,28.2 ,32.8 
2004/8/3,14:00:00,30.9 ,45.4 ,31.6 ,28.2 ,32.7 
2004/8/3,14:15:00,30.9 ,47.3 ,31.6 ,28.3 ,32.5 
2004/8/3,14:30:00,30.9 ,47.0 ,31.6 ,28.3 ,32.4 
2004/8/3,14:45:00,31.1 ,45.1 ,31.6 ,28.3 ,32.3 
2004/8/3,15:00:00,31.2 ,47.4 ,31.6 ,28.3 ,32.6 
2004/8/3,15:15:00,31.4 ,48.2 ,31.7 ,28.4 ,32.8 
2004/8/3,15:30:00,31.5 ,48.7 ,31.7 ,28.4 ,32.8 
2004/8/3,15:45:00,31.7 ,50.1 ,31.8 ,27.7 ,32.8 
2004/8/3,16:00:00,31.8 ,50.9 ,31.9 ,27.8 ,32.7 
2004/8/3,16:15:00,31.9 ,51.2 ,31.9 ,27.8 ,32.6 
2004/8/3,16:30:00,31.9 ,52.5 ,31.9 ,27.8 ,32.5 
2004/8/3,16:45:00,32.0 ,53.6 ,31.9 ,27.9 ,32.4 
2004/8/3,17:00:00,32.0 ,54.8 ,31.9 ,27.9 ,32.3 
2004/8/3,17:15:00,32.0 ,57.9 ,31.9 ,28.0 ,33.3 
2004/8/3,17:30:00,32.0 ,56.3 ,31.8 ,28.0 ,32.6 
2004/8/3,17:45:00,31.9 ,56.5 ,31.8 ,28.0 ,32.1 
2004/8/3,18:00:00,31.7 ,57.0 ,31.6 ,28.1 ,31.8 
2004/8/3,18:15:00,31.5 ,57.3 ,31.4 ,28.1 ,31.6 
2004/8/3,18:30:00,31.4 ,58.2 ,31.2 ,28.1 ,31.2 
2004/8/3,18:45:00,31.2 ,58.7 ,31.0 ,28.2 ,31.0 
2004/8/3,19:00:00,31.1 ,58.9 ,31.0 ,28.2 ,30.8 
2004/8/3,19:15:00,31.3 ,57.6 ,31.1 ,28.2 ,30.8 
2004/8/3,19:30:00,31.3 ,56.6 ,31.1 ,28.3 ,30.8 
2004/8/3,19:45:00,31.3 ,56.4 ,31.1 ,28.3 ,30.6 
2004/8/3,20:00:00,31.1 ,55.4 ,31.0 ,28.3 ,30.5 
2004/8/3,20:15:00,30.9 ,55.2 ,30.9 ,28.4 ,30.3 
2004/8/3,20:30:00,30.8 ,55.1 ,30.8 ,28.4 ,30.2 
2004/8/3,20:45:00,30.7 ,55.0 ,30.8 ,28.4 ,30.1 
2004/8/3,21:00:00,30.7 ,55.4 ,31.0 ,28.5 ,30.0 
2004/8/3,21:15:00,30.6 ,56.0 ,30.8 ,28.5 ,29.9 
2004/8/3,21:30:00,30.6 ,56.2 ,30.7 ,28.5 ,29.9 
2004/8/3,21:45:00,30.5 ,55.9 ,30.7 ,28.5 ,29.8 
2004/8/3,22:00:00,30.4 ,56.0 ,30.5 ,28.6 ,29.7 
2004/8/3,22:15:00,30.3 ,56.4 ,30.4 ,28.6 ,29.6 
2004/8/3,22:30:00,30.2 ,56.6 ,30.3 ,28.6 ,29.5 
2004/8/3,22:45:00,30.1 ,56.5 ,30.2 ,28.6 ,29.4 
2004/8/3,23:00:00,30.0 ,56.9 ,30.1 ,28.7 ,29.3 
2004/8/3,23:15:00,29.9 ,57.3 ,30.0 ,28.7 ,29.2 
2004/8/3,23:30:00,29.9 ,57.9 ,29.9 ,28.7 ,29.1 
2004/8/3,23:45:00,29.8 ,57.2 ,29.8 ,28.7 ,29.0 
2004/8/4,0:00:00,29.7 ,57.4 ,29.8 ,28.7 ,29.0 
2004/8/4,0:15:00,29.7 ,57.3 ,29.7 ,28.8 ,29.0 
2004/8/4,0:30:00,29.7 ,58.0 ,29.7 ,28.8 ,29.0 
2004/8/4,0:45:00,29.6 ,58.7 ,29.6 ,28.8 ,29.0 
2004/8/4,1:00:00,29.6 ,58.5 ,29.6 ,28.8 ,28.9 
2004/8/4,1:15:00,29.5 ,58.5 ,29.6 ,28.8 ,28.9 
2004/8/4,1:30:00,29.5 ,58.7 ,29.6 ,28.8 ,28.8 
2004/8/4,1:45:00,29.4 ,59.1 ,29.5 ,28.8 ,28.8 
2004/8/4,2:00:00,29.4 ,58.8 ,29.5 ,28.8 ,28.8 
2004/8/4,2:15:00,29.4 ,59.1 ,29.5 ,28.9 ,28.7 
2004/8/4,2:30:00,29.3 ,59.1 ,29.4 ,28.9 ,28.7 
2004/8/4,2:45:00,29.3 ,60.2 ,29.4 ,28.9 ,28.7 
2004/8/4,3:00:00,29.2 ,59.4 ,29.3 ,28.9 ,28.6 
2004/8/4,3:15:00,29.2 ,59.7 ,29.3 ,28.9 ,28.6 
2004/8/4,3:30:00,29.2 ,60.3 ,29.3 ,28.9 ,28.6 
2004/8/4,3:45:00,29.1 ,60.0 ,29.2 ,28.9 ,28.5 
2004/8/4,4:00:00,29.1 ,59.7 ,29.2 ,28.9 ,28.5 
2004/8/4,4:15:00,29.0 ,60.1 ,29.2 ,28.9 ,28.4 
2004/8/4,4:30:00,29.0 ,59.7 ,29.1 ,28.9 ,28.4 
2004/8/4,4:45:00,28.9 ,59.7 ,29.1 ,28.9 ,28.3 
2004/8/4,5:00:00,28.9 ,59.7 ,29.1 ,27.5 ,28.3 
2004/8/4,5:15:00,28.9 ,60.6 ,29.2 ,27.5 ,28.3 
2004/8/4,5:30:00,28.9 ,60.2 ,29.2 ,27.6 ,28.3 
2004/8/4,5:45:00,28.9 ,60.4 ,29.2 ,27.6 ,28.4 
2004/8/4,6:00:00,28.9 ,61.3 ,29.1 ,27.6 ,28.4 
2004/8/4,6:15:00,28.8 ,61.2 ,29.1 ,27.6 ,28.4 
2004/8/4,6:30:00,28.8 ,61.4 ,29.1 ,27.6 ,28.4 
2004/8/4,6:45:00,28.8 ,61.1 ,29.1 ,27.7 ,28.5 
2004/8/4,7:00:00,28.9 ,62.1 ,29.1 ,27.7 ,28.5 
2004/8/4,7:15:00,28.9 ,62.4 ,29.1 ,27.7 ,28.5 
2004/8/4,7:30:00,28.9 ,62.3 ,29.2 ,27.7 ,28.6 
2004/8/4,7:45:00,28.9 ,61.7 ,29.2 ,27.8 ,28.6 
2004/8/4,8:00:00,29.0 ,61.5 ,29.3 ,27.8 ,28.7 
2004/8/4,8:15:00,29.0 ,61.9 ,29.3 ,27.8 ,28.8 
2004/8/4,8:30:00,29.0 ,61.4 ,29.4 ,27.8 ,28.8 
2004/8/4,8:45:00,29.1 ,60.4 ,29.5 ,27.8 ,28.9 
2004/8/4,9:00:00,29.1 ,59.6 ,29.5 ,27.8 ,29.0 
2004/8/4,9:15:00,29.1 ,59.0 ,29.5 ,27.9 ,29.0 
2004/8/4,9:30:00,29.2 ,58.8 ,29.5 ,27.9 ,29.1 
2004/8/4,9:45:00,29.3 ,58.4 ,29.6 ,27.9 ,29.1 
2004/8/4,10:00:00,29.3 ,58.0 ,29.7 ,27.9 ,29.2 
2004/8/4,10:15:00,29.4 ,57.7 ,29.7 ,27.9 ,29.3 
2004/8/4,10:30:00,29.5 ,57.1 ,29.7 ,28.0 ,29.4 
2004/8/4,10:45:00,29.5 ,56.9 ,29.8 ,28.0 ,29.5 
2004/8/4,11:00:00,29.6 ,56.9 ,29.8 ,28.0 ,29.5 
2004/8/4,11:15:00,29.7 ,56.8 ,29.9 ,28.0 ,29.6 
2004/8/4,11:30:00,29.8 ,56.6 ,30.0 ,28.0 ,29.7 
2004/8/4,11:45:00,29.9 ,56.5 ,30.0 ,28.0 ,29.8 
2004/8/4,12:00:00,29.9 ,56.2 ,30.1 ,28.1 ,29.9 
2004/8/4,12:15:00,30.0 ,55.7 ,30.2 ,28.1 ,30.0 
2004/8/4,12:30:00,30.1 ,55.5 ,30.2 ,28.1 ,30.1 
2004/8/4,12:45:00,30.2 ,55.1 ,30.2 ,28.1 ,30.2 
2004/8/4,13:00:00,30.3 ,54.8 ,30.3 ,28.1 ,30.3 
2004/8/4,13:15:00,30.4 ,54.7 ,30.3 ,28.1 ,30.5 
2004/8/4,13:30:00,30.5 ,54.3 ,30.3 ,28.1 ,30.6 
2004/8/4,13:45:00,30.6 ,54.0 ,30.3 ,28.2 ,30.7 
2004/8/4,14:00:00,30.7 ,53.8 ,30.4 ,28.2 ,30.8 
2004/8/4,14:15:00,30.8 ,53.7 ,30.4 ,28.2 ,30.9 
2004/8/4,14:30:00,31.0 ,53.7 ,30.4 ,28.2 ,31.0 
2004/8/4,14:45:00,31.1 ,53.5 ,30.4 ,28.3 ,31.1 
2004/8/4,15:00:00,31.2 ,53.3 ,30.5 ,28.3 ,31.2 
2004/8/4,15:15:00,31.3 ,52.5 ,30.5 ,28.3 ,31.3 
2004/8/4,15:30:00,31.5 ,52.8 ,30.5 ,28.3 ,31.4 
2004/8/4,15:45:00,31.6 ,52.8 ,30.6 ,28.3 ,31.5 
2004/8/4,16:00:00,31.8 ,55.3 ,30.6 ,28.3 ,31.6 
2004/8/4,16:15:00,32.0 ,56.1 ,30.6 ,28.4 ,31.7 
2004/8/4,16:30:00,32.1 ,56.1 ,30.7 ,28.4 ,31.8 
2004/8/4,16:45:00,32.2 ,55.6 ,30.7 ,28.4 ,31.9 
2004/8/4,17:00:00,32.4 ,55.7 ,30.8 ,28.4 ,32.0 
2004/8/4,17:15:00,32.5 ,55.6 ,30.8 ,28.5 ,32.1 
2004/8/4,17:30:00,32.6 ,55.7 ,30.8 ,28.5 ,32.2 
2004/8/4,17:45:00,32.6 ,56.0 ,30.8 ,28.5 ,32.3 
2004/8/4,18:00:00,32.6 ,56.6 ,30.9 ,28.5 ,32.3 
2004/8/4,18:15:00,32.6 ,57.3 ,30.9 ,28.6 ,32.3 
2004/8/4,18:30:00,32.6 ,58.4 ,30.9 ,28.6 ,32.3 
2004/8/4,18:45:00,32.5 ,57.4 ,31.0 ,28.6 ,32.2 
2004/8/4,19:00:00,32.4 ,57.4 ,31.0 ,28.6 ,32.2 
2004/8/4,19:15:00,32.4 ,57.3 ,31.0 ,28.6 ,32.1 
2004/8/4,19:30:00,32.3 ,57.0 ,31.0 ,28.7 ,32.1 
2004/8/4,19:45:00,32.2 ,56.9 ,31.0 ,28.7 ,32.1 
2004/8/4,20:00:00,32.2 ,56.9 ,31.0 ,28.7 ,32.0 
2004/8/4,20:15:00,32.1 ,57.1 ,31.0 ,28.8 ,32.0 
2004/8/4,20:30:00,32.1 ,57.1 ,31.0 ,28.8 ,31.9 
2004/8/4,20:45:00,32.1 ,57.2 ,31.0 ,28.8 ,31.9 
2004/8/4,21:00:00,32.0 ,56.5 ,31.0 ,28.8 ,31.9 
2004/8/4,21:15:00,31.9 ,55.9 ,31.0 ,28.9 ,31.8 
2004/8/4,21:30:00,31.9 ,56.2 ,30.9 ,28.9 ,31.7 
2004/8/4,21:45:00,31.7 ,53.9 ,30.9 ,28.9 ,31.6 
2004/8/4,22:00:00,31.6 ,54.1 ,30.8 ,28.9 ,31.4 
2004/8/4,22:15:00,31.4 ,53.0 ,30.8 ,29.0 ,31.2 
2004/8/4,22:30:00,31.3 ,52.9 ,30.7 ,29.0 ,31.0 
2004/8/4,22:45:00,31.2 ,53.2 ,30.7 ,29.0 ,30.9 
2004/8/4,23:00:00,31.1 ,52.8 ,30.6 ,29.0 ,30.7 
2004/8/4,23:15:00,31.0 ,52.2 ,30.6 ,29.1 ,30.6 
2004/8/4,23:30:00,30.8 ,52.2 ,30.5 ,29.1 ,30.5 
2004/8/4,23:45:00,30.7 ,52.3 ,30.4 ,29.1 ,30.3 
2004/8/5,0:00:00,30.6 ,52.5 ,30.4 ,29.1 ,30.2 
2004/8/5,0:15:00,30.5 ,52.6 ,30.3 ,29.1 ,30.1 
2004/8/5,0:30:00,30.4 ,51.9 ,30.3 ,29.2 ,30.0 
2004/8/5,0:45:00,30.3 ,52.6 ,30.2 ,29.2 ,29.9 
2004/8/5,1:00:00,30.3 ,53.0 ,30.2 ,29.2 ,29.8 
2004/8/5,1:15:00,30.2 ,53.4 ,30.2 ,29.2 ,29.7 
2004/8/5,1:30:00,30.1 ,53.3 ,30.1 ,29.2 ,29.6 
2004/8/5,1:45:00,30.1 ,53.3 ,30.0 ,29.2 ,29.6 
2004/8/5,2:00:00,30.0 ,53.3 ,30.0 ,29.2 ,29.5 
2004/8/5,2:15:00,29.9 ,53.5 ,29.9 ,29.2 ,29.4 
2004/8/5,2:30:00,29.8 ,53.3 ,29.9 ,29.2 ,29.3 
2004/8/5,2:45:00,29.8 ,53.6 ,29.8 ,29.2 ,29.2 
2004/8/5,3:00:00,29.7 ,53.7 ,29.8 ,29.2 ,29.1 
2004/8/5,3:15:00,29.7 ,53.7 ,29.8 ,29.2 ,29.1 
2004/8/5,3:30:00,29.6 ,53.8 ,29.7 ,29.3 ,29.0 
2004/8/5,3:45:00,29.5 ,53.8 ,29.7 ,29.3 ,28.9 
2004/8/5,4:00:00,29.5 ,53.7 ,29.6 ,29.3 ,28.9 
2004/8/5,4:15:00,29.4 ,53.8 ,29.6 ,29.3 ,28.8 
2004/8/5,4:30:00,29.4 ,53.6 ,29.5 ,29.3 ,28.8 
2004/8/5,4:45:00,29.3 ,53.4 ,29.5 ,29.3 ,28.7 
2004/8/5,5:00:00,29.3 ,53.4 ,29.5 ,29.3 ,28.7 
2004/8/5,5:15:00,29.2 ,53.1 ,29.4 ,29.3 ,28.6 
2004/8/5,5:30:00,29.2 ,53.3 ,29.4 ,29.2 ,28.6 
2004/8/5,5:45:00,29.1 ,53.2 ,29.3 ,29.2 ,28.6 
2004/8/5,6:00:00,29.1 ,53.3 ,29.3 ,29.2 ,28.6 
2004/8/5,6:15:00,29.1 ,53.2 ,29.3 ,27.7 ,28.6 
2004/8/5,6:30:00,29.1 ,54.0 ,29.3 ,27.7 ,28.7 
2004/8/5,6:45:00,29.1 ,54.5 ,29.3 ,27.7 ,28.8 
2004/8/5,7:00:00,29.2 ,55.0 ,29.4 ,27.8 ,28.9 
2004/8/5,7:15:00,29.3 ,55.5 ,29.5 ,27.8 ,29.1 
2004/8/5,7:30:00,29.3 ,55.3 ,29.6 ,27.8 ,29.3 
2004/8/5,7:45:00,29.5 ,55.5 ,29.7 ,27.8 ,29.6 
2004/8/5,8:00:00,29.5 ,55.6 ,29.9 ,27.9 ,29.7 
2004/8/5,8:15:00,29.7 ,55.7 ,30.0 ,27.9 ,29.9 
2004/8/5,8:30:00,29.8 ,55.6 ,30.2 ,27.9 ,30.4 
2004/8/5,8:45:00,29.8 ,55.3 ,30.2 ,27.9 ,33.1 
2004/8/5,9:00:00,30.0 ,55.1 ,30.3 ,27.9 ,33.2 
2004/8/5,9:15:00,30.1 ,55.3 ,30.5 ,28.0 ,32.3 
2004/8/5,9:30:00,30.2 ,55.5 ,30.6 ,28.0 ,31.8 
2004/8/5,9:45:00,30.3 ,55.9 ,30.7 ,27.8 ,31.4 
2004/8/5,10:00:00,30.4 ,56.0 ,30.7 ,28.1 ,31.2 
2004/8/5,10:15:00,30.4 ,55.9 ,30.7 ,28.1 ,31.0 
2004/8/5,10:30:00,30.4 ,56.4 ,30.7 ,28.2 ,30.9 
2004/8/5,10:45:00,30.5 ,56.9 ,30.7 ,28.2 ,30.8 
2004/8/5,11:00:00,30.5 ,57.0 ,30.8 ,28.2 ,30.9 
2004/8/5,11:15:00,30.7 ,56.6 ,31.0 ,28.2 ,30.9 
2004/8/5,11:30:00,30.7 ,56.7 ,31.1 ,28.3 ,31.0 
2004/8/5,11:45:00,30.9 ,56.9 ,31.3 ,28.3 ,31.2 
2004/8/5,12:00:00,31.0 ,56.3 ,31.4 ,28.3 ,31.3 
2004/8/5,12:15:00,31.2 ,56.3 ,31.6 ,27.9 ,31.8 
2004/8/5,12:30:00,31.3 ,56.1 ,31.7 ,27.9 ,32.6 
2004/8/5,12:45:00,31.3 ,56.0 ,31.8 ,28.0 ,32.6 
2004/8/5,13:00:00,31.5 ,56.4 ,31.8 ,28.0 ,32.6 
2004/8/5,13:15:00,31.6 ,56.1 ,31.9 ,28.0 ,32.7 
2004/8/5,13:30:00,31.7 ,55.9 ,31.9 ,28.1 ,32.6 
2004/8/5,13:45:00,31.8 ,55.7 ,32.0 ,28.1 ,32.6 
2004/8/5,14:00:00,31.8 ,55.6 ,32.0 ,28.1 ,32.5 
2004/8/5,14:15:00,31.9 ,55.8 ,32.0 ,28.1 ,32.5 
2004/8/5,14:30:00,31.9 ,56.0 ,32.1 ,28.2 ,32.5 
2004/8/5,14:45:00,32.0 ,56.1 ,32.1 ,28.2 ,32.4 
2004/8/5,15:00:00,32.0 ,56.1 ,32.1 ,28.3 ,32.4 
2004/8/5,15:15:00,32.1 ,56.8 ,32.2 ,28.3 ,32.4 
2004/8/5,15:30:00,32.2 ,57.1 ,32.2 ,28.3 ,32.4 
2004/8/5,15:45:00,32.2 ,56.7 ,32.2 ,28.4 ,32.4 
2004/8/5,16:00:00,32.2 ,56.4 ,32.2 ,28.4 ,32.4 
2004/8/5,16:15:00,32.2 ,56.4 ,32.3 ,28.5 ,32.4 
2004/8/5,16:30:00,32.2 ,56.5 ,32.3 ,28.5 ,32.3 
2004/8/5,16:45:00,32.3 ,56.4 ,32.3 ,28.5 ,32.4 
2004/8/5,17:00:00,32.4 ,57.3 ,32.3 ,28.6 ,32.4 
2004/8/5,17:15:00,32.4 ,57.1 ,32.3 ,28.6 ,32.4 
2004/8/5,17:30:00,32.4 ,57.0 ,32.3 ,28.6 ,32.4 
2004/8/5,17:45:00,32.4 ,57.3 ,32.3 ,28.7 ,32.4 
2004/8/5,18:00:00,32.3 ,57.0 ,32.3 ,28.7 ,32.3 
2004/8/5,18:15:00,32.3 ,57.2 ,32.3 ,28.8 ,32.3 
2004/8/5,18:30:00,32.3 ,57.0 ,32.3 ,28.8 ,32.3 
2004/8/5,18:45:00,31.9 ,54.8 ,32.2 ,28.8 ,32.2 
2004/8/5,19:00:00,31.2 ,52.6 ,32.0 ,28.9 ,31.8 
2004/8/5,19:15:00,30.7 ,52.3 ,31.7 ,28.9 ,31.4 
2004/8/5,19:30:00,30.3 ,52.0 ,31.5 ,28.9 ,31.1 
2004/8/5,19:45:00,30.1 ,52.5 ,31.4 ,29.0 ,30.8 
2004/8/5,20:00:00,29.9 ,53.2 ,31.2 ,29.0 ,30.6 
2004/8/5,20:15:00,29.9 ,53.7 ,31.2 ,29.0 ,30.4 
2004/8/5,20:30:00,29.8 ,52.8 ,31.2 ,29.0 ,30.2 
2004/8/5,20:45:00,29.6 ,52.3 ,31.2 ,29.0 ,30.0 
2004/8/5,21:00:00,29.4 ,51.6 ,31.2 ,29.1 ,29.8 
2004/8/5,21:15:00,29.3 ,51.8 ,31.1 ,29.1 ,29.6 
2004/8/5,21:30:00,29.1 ,52.1 ,31.0 ,29.1 ,29.5 
2004/8/5,21:45:00,29.0 ,52.1 ,31.0 ,29.1 ,29.3 
2004/8/5,22:00:00,28.9 ,52.4 ,30.9 ,29.1 ,29.2 
2004/8/5,22:15:00,28.7 ,51.9 ,30.8 ,29.1 ,29.0 
2004/8/5,22:30:00,28.6 ,52.0 ,30.8 ,29.1 ,28.9 
2004/8/5,22:45:00,28.5 ,51.8 ,30.7 ,29.1 ,28.8 
2004/8/5,23:00:00,28.3 ,51.5 ,30.6 ,29.1 ,28.6 
2004/8/5,23:15:00,28.2 ,51.7 ,30.5 ,29.1 ,28.5 
2004/8/5,23:30:00,28.0 ,51.5 ,30.4 ,29.1 ,28.3 
2004/8/5,23:45:00,27.9 ,51.7 ,30.3 ,29.1 ,28.2 
2004/8/6,0:00:00,27.9 ,53.0 ,30.2 ,29.0 ,28.1 
2004/8/6,0:15:00,28.1 ,52.6 ,30.1 ,29.0 ,28.1 
2004/8/6,0:30:00,28.2 ,52.1 ,30.1 ,29.0 ,28.1 
2004/8/6,0:45:00,28.2 ,54.2 ,30.0 ,29.0 ,28.1 
2004/8/6,1:00:00,28.0 ,54.1 ,30.0 ,29.0 ,28.1 
2004/8/6,1:15:00,28.1 ,53.1 ,29.9 ,29.0 ,28.1 
2004/8/6,1:30:00,28.3 ,54.1 ,29.9 ,27.7 ,28.1 
2004/8/6,1:45:00,28.3 ,53.9 ,29.8 ,27.7 ,28.1 
2004/8/6,2:00:00,28.3 ,53.7 ,29.8 ,27.7 ,28.1 
2004/8/6,2:15:00,28.4 ,53.7 ,29.8 ,27.7 ,28.1 
2004/8/6,2:30:00,28.4 ,54.3 ,29.8 ,27.7 ,28.1 
2004/8/6,2:45:00,28.4 ,54.3 ,29.7 ,27.8 ,28.2 
2004/8/6,3:00:00,28.4 ,54.5 ,29.7 ,27.8 ,28.2 